Location: Dominguez Junction
(33.8634°N, 118.2179°W)
Time: 08:00:48
(UTC+00:00)

CZ-2C R/B - Pass Details

Date: 29 October 2020
Orbit: 667 x 785 km, 98.2° (Epoch: 28 November)

Event Time Altitude Azimuth Distance (km) Brightness Sun altitude
Rises 13:11:59 0° 347° (NNW) 3,172 5.5 -12.6°
Reaches altitude 10° 13:15:54 10° 316° (NW) 2,213 4.4 -11.8°
Enters shadow 13:16:06 10° 313° (NW) 2,188 4.4 -11.8°
